Weather History for Russellville, AR

Change the Weather History Date:

Saturday, August 23, 2014

  Actual Average (KHOT) Record (KHOT)
Temperature  
Mean Temperature 85 °F -  
Max Temperature 97 °F 93 °F 108 °F (1987)
Min Temperature 73 °F 67 °F 54 °F (1956)
Cooling Degree Days 20    
Growing Degree Days 35 (Base 50)    
Moisture  
Dew Point 73 °F    
Average Humidity 73    
Maximum Humidity 94    
Minimum Humidity 44    
Precipitation  
Precipitation 0.00 in - - ()
Sea Level Pressure  
Sea Level Pressure 29.95 in    
Wind  
Wind Speed 1 mph (WSW)    
Max Wind Speed 8 mph    
Max Gust Speed -    
Visibility 8 miles    
Events      
Averages and records for this station are not official NWS values.
T = Trace of Precipitation, MM = Missing Value Source: NWS Daily Summary

Daily Weather History Graph

Daily Weather History Graph

Search for Another Location

Airport:

Trip Planner

Search our weather history database for the weather conditions in past years. The results will help you decide how hot, cold, wet, or windy it might be!

Date:

Astronomy

Aug. 23, 2014 Rise Set
Actual Time 6:38 AM CDT 7:51 PM CDT
Civil Twilight 6:11 AM CDT 8:17 PM CDT
Nautical Twilight 5:40 AM CDT 8:48 PM CDT
Astronomical Twilight 5:07 AM CDT 9:21 PM CDT
Moon 4:56 AM CDT (8/23) 6:35 PM CDT (8/23)
Length of Visible Light 14h 05m
Length of Day
13h 13m
Waning Crescent, 3% of the Moon is Illuminated
Aug 23
Waning Crescent
Aug 25
New
Sep 2
First Quarter
Sep 8
Full
Sep 15
Last Quarter

Hourly Weather History & Observations

Time (CDT) Temp. Heat Index Dew Point Humidity Pressure Visibility Wind Dir Wind Speed Gust Speed Precip Events Conditions
12:53 AM 77.0 °F - 73.9 °F 90% 29.97 in 7.0 mi Calm Calm - N/A   Clear
1:53 AM 77.0 °F - 75.0 °F 94% 29.96 in 6.0 mi Calm Calm - N/A   Clear
2:53 AM 75.0 °F - 73.0 °F 94% 29.96 in 6.0 mi Calm Calm - N/A   Clear
4:53 AM 75.0 °F - 73.0 °F 94% 29.96 in 4.0 mi Calm Calm - N/A   Clear
7:04 AM 73.9 °F - 72.0 °F 93% 30.01 in 2.5 mi Calm Calm - N/A   Clear
7:11 AM 73.9 °F - 72.0 °F 93% 30.01 in 3.0 mi Calm Calm - N/A   Clear
7:53 AM 78.1 °F - 75.0 °F 90% 29.99 in 5.0 mi Calm Calm - N/A   Clear
8:53 AM 81.0 °F 86.7 °F 75.0 °F 82% 30.00 in 8.0 mi Calm Calm - N/A   Clear
9:53 AM 86.0 °F 96.0 °F 75.9 °F 72% 30.00 in 9.0 mi Calm Calm - N/A   Clear
10:53 AM 90.0 °F 97.9 °F 73.0 °F 57% 30.00 in 10.0 mi Calm Calm - N/A   Clear
11:53 AM 91.9 °F 99.5 °F 72.0 °F 52% 29.99 in 10.0 mi NNW 8.1 mph - N/A   Clear
12:53 PM 93.0 °F 101.9 °F 73.0 °F 52% 29.98 in 10.0 mi SSW 3.5 mph - N/A   Clear
1:53 PM 96.1 °F 108.6 °F 75.0 °F 51% 29.96 in 10.0 mi Calm Calm - N/A   Clear
2:53 PM 95.0 °F 104.5 °F 73.0 °F 49% 29.93 in 10.0 mi SW 4.6 mph - N/A   Clear
3:53 PM 97.0 °F 107.0 °F 73.0 °F 46% 29.91 in 10.0 mi Calm Calm - N/A   Clear
4:53 PM 96.1 °F 103.5 °F 71.1 °F 44% 29.89 in 10.0 mi West 4.6 mph - N/A   Clear
5:53 PM 95.0 °F 102.5 °F 71.1 °F 46% 29.88 in 10.0 mi SW 4.6 mph - N/A   Clear
6:53 PM 91.0 °F 101.6 °F 75.0 °F 59% 29.87 in 10.0 mi Calm Calm - N/A   Clear
7:53 PM 82.9 °F 89.4 °F 73.9 °F 74% 29.88 in 10.0 mi Calm Calm - N/A   Clear
8:53 PM 80.1 °F 84.5 °F 73.9 °F 81% 29.90 in 10.0 mi Calm Calm - N/A   Clear
9:53 PM 79.0 °F - 73.0 °F 82% 29.92 in 10.0 mi Calm Calm - N/A   Clear
10:53 PM 78.1 °F - 73.0 °F 84% 29.92 in 10.0 mi Calm Calm - N/A   Clear
11:53 PM 75.0 °F - 72.0 °F 90% 29.93 in 10.0 mi Calm Calm - N/A   Clear